Location: ????????
(55.6189°N, 38.3031°E)
Time: 14:29:52
(UTC+00:00)

SL-16 R/B - Pass Details

Date: 23 February 2020
Orbit: 843 x 847 km, 71.0° (Epoch: 07 April)

Event Time Altitude Azimuth Distance (km) Brightness Sun altitude
Exits shadow 03:21:28 14° 281° (WNW) 2,203 3.7 -10.9°
Maximum altitude 03:25:14 26° 331° (NNW) 1,611 3.4 -10.4°
Drops below altitude 10° 03:29:57 10° 27° (NNE) 2,477 5.0 -9.7°
Sets 03:32:50 0° 40° (NE) 3,414 5.9 -9.3°
